This demonstration page uses our WeatherBlox Daily Observations layout. Learn more.

Left ArrowRight Arrow

Hourly Observations for July 4, 2015

Temp ( °F °C ) Dew Point ( °F °C ) Humidity (%) Winds ( mph kmh ) Pressure ( in mb ) Visibility ( mi km ) Precip ( " mm )
12:53 am 00:53 Clear 79 26.1 62 16.7 56 56 SE 8 13 29.87 1011 10 16 0.00 0.00
1:53 am 01:53 Clear 77 25 62 16.7 60 60 SE 8 13 29.86 1011 10 16 0.00 0.00
2:53 am 02:53 Clear 75 23.9 62 16.7 64 64 SE 7 11 29.86 1011 10 16 0.00 0.00
3:53 am 03:53 Clear 73 22.8 62 16.7 69 69 ESE 6 9 29.85 1011 10 16 0.00 0.00
4:53 am 04:53 Clear 72 22.2 63 17.2 73 73 ENE 6 9 29.86 1011 10 16 0.00 0.00
5:53 am 05:53 Clear 71 21.7 63 17.2 76 76 ESE 6 9 29.85 1011 10 16 0.00 0.00
6:53 am 06:53 Sunny 71 21.7 63 17.2 76 76 ESE 8 13 29.86 1011 10 16 0.00 0.00
7:53 am 07:53 Sunny 74 23.3 65 18.3 74 74 ESE 12 19 29.87 1012 10 16 0.00 0.00
8:53 am 08:53 Sunny 77 25 66 18.9 69 69 ESE 14 22 29.88 1012 10 16 0.00 0.00
9:53 am 09:53 Mostly Sunny 79 26.1 66 18.9 65 65 SE 13 20 29.88 1012 10 16 0.00 0.00
10:53 am 10:53 Partly Cloudy 81 27.2 66 18.9 61 61 SE 12 19 29.88 1012 10 16 0.00 0.00
11:53 am 11:53 Mostly Cloudy 84 28.9 65 18.3 53 53 SSE 9 15 29.88 1012 10 16 0.00 0.00
12:53 pm 12:53 Mostly Cloudy 86 30 64 17.8 48 48 E 9 15 29.87 1012 10 16 0.00 0.00
1:53 pm 13:53 Mostly Cloudy 88 31.1 64 17.8 45 45 ESE 12 19 29.85 1011 10 16 0.00 0.00
2:53 pm 14:53 Mostly Cloudy 90 32.2 63 17.2 41 41 ESE 10 17 29.83 1010 10 16 0.00 0.00
3:53 pm 15:53 Sunny 90 32.2 62 16.7 39 39 ESE 10 17 29.80 1009 10 16 0.00 0.00
4:53 pm 16:53 Mostly Sunny 92 33.3 61 16.1 36 36 ESE 13 20 29.78 1009 10 16 0.00 0.00
5:53 pm 17:53 Partly Cloudy 91 32.8 60 15.6 35 35 E 17 28 29.77 1008 10 16 0.00 0.00
6:53 pm 18:53 Mostly Sunny 92 33.3 60 15.6 34 34 ESE 16 26 29.77 1008 10 16 0.00 0.00
7:53 pm 19:53 Sunny 90 32.2 60 15.6 37 37 SE 13 20 29.77 1008 10 16 0.00 0.00
8:53 pm 20:53 Sunny 87 30.6 61 16.1 42 42 SE 13 20 29.79 1009 10 16 0.00 0.00
9:53 pm 21:53 Clear 84 28.9 61 16.1 46 46 SE 9 15 29.81 1009 10 16 0.00 0.00
10:53 pm 22:53 Clear 82 27.8 61 16.1 49 49 SE 8 13 29.83 1010 10 16 0.00 0.00
11:53 pm 23:53 Clear 80 26.7 61 16.1 52 52 SE 9 15 29.84 1011 10 16 0.00 0.00

Powered by AerisWeather